Terminal Aerodrome Forecast
Issued by NWS Shreveport, LA

Home | Current Version | Previous Version | Text Only | Print | Product List | Glossary On
Versions: 1 2 3 4 5 6 7 8 9 10 11 12 13 14
799
FTUS44 KSHV 171507 AAB
TAFGGG
TAF AMD
KGGG 171507Z 1715/1812 VRB03KT 3SM BR OVC002
      TEMPO 1715/1717 1/4SM FG
     FM171700 VRB03KT P6SM OVC007
     FM171800 VRB04KT P6SM BKN015
     FM172000 VRB04KT P6SM SCT025 BKN250
     FM180000 VRB03KT P6SM BKN250
     FM180600 06004KT 5SM BR OVC015
     FM180900 06004KT 3SM BR OVC005=

USA.gov is the U.S. government's official web portal to all federal, state and local government web resources and services.